Location: Seattle
(47.6064°N, 122.3308°W)
Time: 00:42:09
(UTC-07:00)

STRAND 1 - Pass Details

Date: 06 April 2023
Orbit: 767 x 779 km, 98.4° (Epoch: 02 June)

Event Time Altitude Azimuth Distance (km) Brightness Sun altitude
Rises 20:21:23 0° 12° (NNE) 3,250 ? -6.6°
Reaches altitude 10° 20:23:42 10° 10° (N) 2,319 ? -6.9°
Maximum altitude 20:28:47 71° 288° (WNW) 816 ? -7.8°
Drops below altitude 10° 20:33:50 10° 205° (SSW) 2,303 ? -8.6°
Sets 20:36:08 0° 203° (SSW) 3,226 ? -8.9°
